SCP
0 0 0 0 0 0 0 0 0 0 1 4 3 3 1 1 1 1 1 0 0 0 0 0 0 0 0 0 0 0 0 0 0 0 -0 0 -0 -0 0 0 0 0 0
0 0 0 0 0 0 0 0 0 0 0 0 0 0 0 0 0 0 0 0 0 0 0 0 0 0 0 0 0 0 0 0 0 -0 -0 -0 -0 0 -0 0 0 0 0
0 0 0 0 0 0 0 0 0 0 0 0 0 0 0 0 0 0 0 0 0 0 0 0 0 0 0 0 0 0 0 0 0 0 -0 -0 -0 -0 -0 -0 0 0 0
0 0 -0 0 0 0 0 0 0 0 0 0 0 0 0 0 0 0 0 0 0 0 0 0 0 0 0 0 0 0 0 0 0 0 0 0 0 0 -0 0 0 0 0
0 0 0 0 0 0 0 0 0 0 0 0 0 0 0 0 0 0 0 0 0 0 0 0 0 0 0 0 0 0 0 0 0 0 0 0 0 0 0 0 0 0 0
0 0 0 0 0 0 0 0 0 0 0 0 0 0 0 0 0 0 0 0 0 0 0 0 0 0 0 0 0 0 0 0 0 0 0 0 0 0 0 0 0 0 0
0 0 0 0 0 0 0 0 0 0 0 0 0 0 0 0 0 0 0 0 0 0 0 0 0 0 0 0 0 0 0 0 0 0 0 0 0 0 0 0 0 0 0
0 0 0 0 0 0 0 0 0 0 0 0 0 0 0 0 0 0 0 0 0 0 0 0 0 0 0 0 0 0 0 0 0 0 0 0 0 0 0 0 0 0 0
0 0 0 0 0 0 0 0 0 0 0 0 0 0 0 0 0 0 0 0 0 0 0 0 0 0 0 0 0 0 0 0 0 0 0 0 0 0 0 0 0 0 0
0 0 0 0 0 0 0 0 0 0 0 0 0 0 0 0 0 0 0 0 0 0 0 0 0 0 0 0 0 0 0 0 0 0 0 0 0 0 0 0 0 0 0
0 0 0 0 0 0 0 0 0 0 0 0 0 0 0 0 0 0 0 0 0 0 0 0 0 0 0 0 0 0 0 0 0 -0 0 0 0 0 0 0 0 0 0
0 0 0 0 0 0 -0 -0 -0 -0 0 0 0 0 0 0 0 0 0 0 0 0 0 0 0 0 0 0 0 0 0 0 0 0 -0 0 0 0 0 0 0 0 0
0 0 0 -0 -0 -0 -0 0 0 0 0 0 0 0 0 0 0 0 0 0 0 0 0 0 0 0 0 0 0 0 0 -0 -0 0 0 0 0 0 0 0 0 0 0
-0 -0 -0 -0 -0 -0 -0 0 0 0 0 0 0 0 0 0 0 0 0 0 0 0 0 0 0 0 0 0 0 0 -0 -0 0 0 0 0 0 0 0 0 0 0 0
-0 -0 -0 -0 -0 0 0 0 0 0 0 0 0 0 0 0 0 0 0 0 0 0 0 0 0 0 0 0 0 0 0 0 0 0 0 0 0 0 0 0 0 0 -0
-0 -0 0 0 0 0 0 0 0 0 0 0 0 0 0 0 0 0 0 0 0 0 0 0 0 0 0 0 0 0 0 0 0 0 0 0 0 0 0 0 0 0 -0
0 0 0 0 0 0 0 0 0 0 0 0 0 0 0 0 0 0 0 0 0 0 0 0 0 0 0 0 0 0 0 0 0 0 0 0 0 0 0 0 0 -0 0
0 0 0 0 0 0 0 0 0 0 0 0 0 0 0 0 0 0 0 -0 0 -0 -0 -0 -0 -0 -0 0 -0 0 0 0 0 0 0 0 0 0 0 0 0 0 0
0 0 0 0 0 0 0 0 0 0 0 0 0 -0 0 -0 0 0 0 0 0 0 0 0 -0 -0 0 0 0 -0 -0 -0 -0 -0 -0 0 -0 0 0 0 0 0 -0
0 0 0 0 0 0 0 0 -0 0 0 0 0 -0 -0 0 -0 -0 0 -0 0 0 -0 -0 0 -0 -0 -0 -0 -0 -0 -0 0 -0 0 -0 0 -0 0 -0 0 0 -0
0 0 0 0 0 0 0 0 0 0 0 0 0 0 0 0 0 0 0 0 0 0 -0 -0 -0 -0 -0 -0 -0 -0 0 -0 -0 -0 0 0 -0 -0 0 0 0 0 0
0 0 -0 -0 0 0 0 0 0 0 0 0 0 0 0 0 0 0 0 0 0 0 0 0 0 0 0 0 0 0 -0 -0 0 -0 -0 -0 -0 0 0 0 0 0 0
0 0 0 0 0 0 0 0 0 0 0 0 0 0 0 0 0 0 0 0 0 0 0 0 0 0 0 0 0 -0 -0 0 -0 -0 0 0 0 0 0 -0 -0 -0 0
0 0 0 0 0 0 0 0 0 0 0 0 0 0 0 0 0 0 0 0 0 0 0 -0 -0 -0 0 0 0 0 -0 -0 -0 -0 -0 0 0 -0 0 -0 -0 0 0
0 0 0 0 0 0 0 0 0 0 0 0 0 0 0 0 0 0 0 0 -0 -0 -0 -0 0 0 0 0 0 0 0 0 0 0 0 0 0 0 -0 0 0 0 0
0 0 0 0 0 0 0 0 0 0 0 0 0 0 -0 -0 0 0 -0 -0 0 0 0 0 0 0 0 0 0 0 0 -0 0 0 0 -0 -0 -0 -0 -0 0 0 0
Wind_Speed_500mb
37 27 22 16 9 7 2 5 1 14 11 12 6 10 13 20 20 23 29 29 29 33 33 33 33 27 20 17 20 24 28 32 41 52 64 69 65 62 37 62 54 46 40
36 27 24 18 11 11 15 13 8 7 4 11 11 12 21 18 20 29 32 31 26 35 39 38 36 24 20 15 17 26 32 35 42 51 57 45 72 24 75 52 61 42 45
38 27 27 32 33 32 26 14 8 12 7 10 13 15 7 12 19 25 24 32 31 24 26 28 26 23 16 13 22 29 34 41 45 47 42 28 24 86 35 69 41 56 40
35 29 31 31 36 33 29 25 20 16 19 14 4 11 13 18 24 21 23 21 12 7 13 18 19 15 15 21 26 30 34 41 47 49 47 42 42 47 55 56 78 59 54
41 38 37 34 33 32 32 30 25 28 30 25 19 4 8 6 6 25 24 19 10 11 14 18 19 21 24 28 32 35 38 43 47 45 46 45 45 48 55 66 62 63 55
54 46 37 33 31 25 24 21 18 19 20 21 23 21 11 1 10 14 12 12 14 20 27 29 31 32 35 37 38 42 43 46 45 43 41 39 43 53 60 66 65 58 61
45 44 42 37 32 32 30 30 28 28 30 30 29 27 22 17 16 24 26 28 34 39 43 42 39 39 38 42 41 44 48 51 49 44 46 46 48 48 50 60 66 54 60
50 49 49 39 34 25 24 22 22 22 25 25 21 23 32 39 36 28 26 28 30 32 38 43 46 48 46 43 39 39 42 48 51 51 44 52 59 50 48 53 54 60 45
53 46 41 40 38 33 29 25 22 19 17 19 22 26 28 29 30 39 43 42 38 32 31 35 37 39 43 43 48 58 61 63 50 47 50 52 53 52 51 50 53 51 46
46 43 41 41 42 43 43 44 45 46 46 44 41 39 39 37 35 37 41 45 46 45 49 45 41 37 43 45 47 51 53 56 54 55 56 57 51 56 57 57 57 55 50
50 52 55 57 61 64 65 66 66 64 62 59 56 52 48 44 47 45 41 47 52 50 44 50 46 56 53 51 53 55 57 60 62 62 52 61 59 58 56 60 58 53 44
54 58 64 75 81 83 83 82 79 78 76 72 68 63 54 48 47 46 42 40 42 49 53 54 52 48 49 55 55 53 52 54 62 68 56 64 59 51 58 64 45 38 34
61 71 89 91 85 84 82 81 77 76 72 67 67 67 64 64 64 54 52 56 52 52 52 48 47 50 50 46 45 46 57 62 62 66 50 52 49 41 57 44 29 35 34
49 61 61 59 61 71 69 70 72 71 69 73 71 64 53 47 48 53 53 60 48 39 44 48 47 42 44 47 51 55 62 62 58 51 41 40 32 36 40 23 16 9 10
65 62 61 66 69 72 75 72 67 68 69 64 58 57 57 54 48 50 44 41 42 52 45 41 43 39 46 51 57 63 63 46 37 38 32 11 16 24 10 12 17 24 24
62 68 67 78 80 75 70 81 76 68 59 61 57 53 54 44 35 36 34 34 32 30 35 34 43 41 48 60 63 48 39 33 35 29 11 5 14 15 10 15 19 21 25
58 60 71 73 77 74 68 67 64 59 57 52 47 39 36 33 31 28 32 20 22 31 39 46 53 52 48 42 37 32 32 30 19 25 16 18 24 26 31 32 32 28 25
61 69 68 72 67 64 60 57 55 52 47 44 35 28 29 24 23 29 36 32 28 32 36 41 41 35 30 32 31 26 22 15 26 25 17 20 25 23 29 36 43 40 35
62 61 61 57 56 54 53 54 52 51 44 34 29 22 18 18 19 20 19 18 20 23 23 23 20 21 23 21 21 14 21 31 25 34 29 26 26 18 20 21 26 30 28
53 55 52 49 46 47 49 48 47 43 31 20 21 11 13 13 14 14 15 21 18 19 22 20 14 15 14 10 2 26 33 40 36 24 31 23 17 13 11 10 13 13 17
50 45 45 45 42 43 45 44 43 41 33 27 21 15 13 12 12 11 12 14 13 12 12 16 25 28 29 32 36 41 44 33 35 28 21 21 30 24 16 13 12 11 2
44 43 44 43 41 40 38 40 39 37 35 33 28 28 31 27 23 15 15 18 17 23 23 33 43 43 39 31 31 29 46 56 52 42 33 25 27 29 24 21 18 18 8
37 39 40 41 39 38 37 37 36 32 30 31 28 27 25 23 22 25 32 33 34 44 50 47 46 51 71 67 60 54 49 39 29 23 23 23 22 20 15 16 17 20 20
33 36 37 40 40 38 34 31 29 26 25 27 30 31 32 34 36 35 34 39 40 44 41 70 80 64 46 40 36 32 28 23 20 16 18 21 19 18 15 14 22 30 27
30 31 34 37 37 36 36 33 30 31 37 39 39 39 42 46 49 49 49 59 84 75 65 53 43 35 34 35 35 32 30 34 36 38 27 20 20 26 26 26 28 34 26
26 27 30 32 34 39 44 48 48 47 49 55 56 59 67 73 77 77 71 59 54 53 51 49 48 44 39 33 33 40 40 35 31 35 38 36 35 35 38 42 35 38 29
Wind_Direction_500mb
116 124 122 91 64 50 301 306 191 146 203 222 222 243 253 259 264 243 254 214 211 194 197 206 224 237 247 274 296 309 317 323 325 328 327 327 325 325 319 321 317 320 313
120 105 76 61 52 30 15 22 84 147 242 269 257 253 260 256 226 230 208 215 196 196 212 229 233 243 263 291 311 320 325 332 336 336 332 331 325 321 315 325 323 323 310
124 104 88 80 72 55 43 23 10 13 324 297 285 286 315 224 209 189 189 208 227 233 234 233 235 245 270 304 323 328 330 331 333 334 334 333 311 323 319 324 327 320 322
124 114 94 81 62 59 56 50 36 14 21 4 19 66 110 180 200 206 206 213 213 244 266 259 249 267 289 311 323 324 327 329 328 325 325 318 313 318 319 314 320 322 319
119 110 96 92 86 83 78 76 73 61 42 31 35 354 265 279 301 179 182 194 210 245 249 263 282 282 286 300 312 317 325 330 328 326 320 316 317 317 309 303 312 322 321
90 96 102 108 97 89 81 62 49 27 14 13 17 17 33 164 197 196 209 235 244 234 240 243 251 267 289 295 306 314 320 324 325 326 321 319 317 313 311 306 308 309 319
76 77 75 67 55 45 34 37 33 27 12 356 353 341 337 337 317 308 299 287 279 263 259 260 268 279 280 295 306 314 321 321 318 319 321 315 312 311 309 308 309 307 310
69 73 74 76 71 69 46 31 13 345 335 332 345 341 328 316 305 295 302 291 270 265 271 275 281 286 290 296 301 315 322 324 319 312 314 311 310 307 307 307 310 314 311
58 58 59 50 42 38 31 17 12 4 359 339 315 296 299 293 300 300 289 279 273 270 269 275 282 284 290 297 300 307 311 309 311 313 312 306 312 308 307 304 303 309 311
39 32 23 15 7 360 354 346 342 336 328 317 312 309 304 294 290 288 288 286 283 271 274 266 276 285 300 296 306 315 314 309 309 309 309 307 307 301 305 301 302 301 301
12 4 356 350 343 337 333 328 323 320 317 316 312 303 293 293 289 290 288 282 278 270 259 277 269 281 272 281 299 306 310 311 310 318 304 306 308 304 305 306 301 299 299
355 349 344 336 331 328 325 322 319 315 312 306 301 298 294 287 284 278 280 284 283 283 282 277 266 269 279 284 288 299 302 306 313 314 302 306 305 306 311 310 300 301 297
345 340 335 333 330 326 324 321 320 317 316 313 308 304 303 297 283 276 278 276 276 276 276 277 281 284 283 282 284 291 300 304 306 312 302 304 299 309 313 305 298 300 302
341 335 337 337 332 332 329 325 320 318 313 309 309 310 307 308 300 298 279 264 271 278 272 269 270 274 277 279 286 296 304 306 305 301 299 297 300 317 312 309 319 357 26
342 342 338 336 333 329 325 323 319 315 316 314 309 306 303 298 304 294 295 279 273 269 276 273 273 274 278 290 295 296 303 304 296 297 295 290 336 331 349 45 55 68 70
341 338 334 330 329 328 325 320 320 320 319 313 307 299 295 306 305 306 308 283 273 273 277 276 277 292 298 294 296 298 292 285 284 278 195 77 31 26 44 58 71 74 80
332 331 328 331 328 326 326 326 324 324 322 318 315 308 309 307 298 304 283 324 300 276 295 297 299 295 295 293 290 287 289 284 259 178 141 86 66 63 72 73 74 76 74
331 333 333 331 335 335 334 332 330 328 327 327 321 312 320 310 312 296 311 311 307 304 303 300 298 294 289 289 291 290 286 197 170 156 134 88 74 73 82 81 77 77 79
334 333 335 340 343 345 343 341 341 336 329 328 331 323 317 323 326 323 315 313 312 309 303 305 320 306 300 304 297 275 194 172 155 146 126 91 82 79 73 74 79 76 80
339 343 346 352 354 358 355 355 351 355 353 347 339 11 10 0 341 345 347 324 310 289 307 324 356 7 12 23 161 160 157 136 119 108 112 116 97 84 62 22 38 61 77
348 353 0 4 4 4 7 8 15 17 25 32 35 27 14 15 355 360 5 10 354 31 55 72 81 79 85 96 106 111 111 111 119 111 115 104 95 70 35 17 340 293 294
359 5 12 15 13 15 19 18 24 35 47 55 59 50 35 50 58 65 54 61 73 94 83 95 95 94 87 85 91 95 85 93 99 101 96 83 68 65 62 56 64 51 75
5 14 18 20 17 20 25 30 33 40 46 50 55 49 46 59 62 72 85 85 87 96 99 97 88 99 93 92 96 101 99 100 98 88 84 84 76 69 55 46 28 34 50
13 18 21 25 26 27 34 39 42 44 49 47 56 66 70 77 79 82 81 85 91 94 105 97 95 98 98 94 89 85 85 82 75 79 98 96 81 49 39 34 34 40 71
18 24 27 31 35 40 45 46 49 61 73 74 74 78 82 83 84 82 85 93 97 95 95 95 90 82 78 76 77 72 72 91 95 100 93 89 65 62 49 44 39 57 96
24 32 39 44 51 62 67 67 67 74 80 82 84 89 92 93 94 93 95 91 85 82 81 79 75 72 73 72 75 89 92 90 88 84 79 74 68 64 57 50 51 58 69
Wind_Speed_850mb
37 27 22 16 9 7 2 5 1 14 11 12 6 10 13 20 20 23 29 29 29 33 33 33 33 27 20 17 20 24 28 32 41 52 64 69 65 62 37 62 54 46 40
36 27 24 18 11 11 15 13 8 7 4 11 11 12 21 18 20 29 32 31 26 35 39 38 36 24 20 15 17 26 32 35 42 51 57 45 72 24 75 52 61 42 45
38 27 27 32 33 32 26 14 8 12 7 10 13 15 7 12 19 25 24 32 31 24 26 28 26 23 16 13 22 29 34 41 45 47 42 28 24 86 35 69 41 56 40
35 29 31 31 36 33 29 25 20 16 19 14 4 11 13 18 24 21 23 21 12 7 13 18 19 15 15 21 26 30 34 41 47 49 47 42 42 47 55 56 78 59 54
41 38 37 34 33 32 32 30 25 28 30 25 19 4 8 6 6 25 24 19 10 11 14 18 19 21 24 28 32 35 38 43 47 45 46 45 45 48 55 66 62 63 55
54 46 37 33 31 25 24 21 18 19 20 21 23 21 11 1 10 14 12 12 14 20 27 29 31 32 35 37 38 42 43 46 45 43 41 39 43 53 60 66 65 58 61
45 44 42 37 32 32 30 30 28 28 30 30 29 27 22 17 16 24 26 28 34 39 43 42 39 39 38 42 41 44 48 51 49 44 46 46 48 48 50 60 66 54 60
50 49 49 39 34 25 24 22 22 22 25 25 21 23 32 39 36 28 26 28 30 32 38 43 46 48 46 43 39 39 42 48 51 51 44 52 59 50 48 53 54 60 45
53 46 41 40 38 33 29 25 22 19 17 19 22 26 28 29 30 39 43 42 38 32 31 35 37 39 43 43 48 58 61 63 50 47 50 52 53 52 51 50 53 51 46
46 43 41 41 42 43 43 44 45 46 46 44 41 39 39 37 35 37 41 45 46 45 49 45 41 37 43 45 47 51 53 56 54 55 56 57 51 56 57 57 57 55 50
50 52 55 57 61 64 65 66 66 64 62 59 56 52 48 44 47 45 41 47 52 50 44 50 46 56 53 51 53 55 57 60 62 62 52 61 59 58 56 60 58 53 44
54 58 64 75 81 83 83 82 79 78 76 72 68 63 54 48 47 46 42 40 42 49 53 54 52 48 49 55 55 53 52 54 62 68 56 64 59 51 58 64 45 38 34
61 71 89 91 85 84 82 81 77 76 72 67 67 67 64 64 64 54 52 56 52 52 52 48 47 50 50 46 45 46 57 62 62 66 50 52 49 41 57 44 29 35 34
49 61 61 59 61 71 69 70 72 71 69 73 71 64 53 47 48 53 53 60 48 39 44 48 47 42 44 47 51 55 62 62 58 51 41 40 32 36 40 23 16 9 10
65 62 61 66 69 72 75 72 67 68 69 64 58 57 57 54 48 50 44 41 42 52 45 41 43 39 46 51 57 63 63 46 37 38 32 11 16 24 10 12 17 24 24
62 68 67 78 80 75 70 81 76 68 59 61 57 53 54 44 35 36 34 34 32 30 35 34 43 41 48 60 63 48 39 33 35 29 11 5 14 15 10 15 19 21 25
58 60 71 73 77 74 68 67 64 59 57 52 47 39 36 33 31 28 32 20 22 31 39 46 53 52 48 42 37 32 32 30 19 25 16 18 24 26 31 32 32 28 25
61 69 68 72 67 64 60 57 55 52 47 44 35 28 29 24 23 29 36 32 28 32 36 41 41 35 30 32 31 26 22 15 26 25 17 20 25 23 29 36 43 40 35
62 61 61 57 56 54 53 54 52 51 44 34 29 22 18 18 19 20 19 18 20 23 23 23 20 21 23 21 21 14 21 31 25 34 29 26 26 18 20 21 26 30 28
53 55 52 49 46 47 49 48 47 43 31 20 21 11 13 13 14 14 15 21 18 19 22 20 14 15 14 10 2 26 33 40 36 24 31 23 17 13 11 10 13 13 17
50 45 45 45 42 43 45 44 43 41 33 27 21 15 13 12 12 11 12 14 13 12 12 16 25 28 29 32 36 41 44 33 35 28 21 21 30 24 16 13 12 11 2
44 43 44 43 41 40 38 40 39 37 35 33 28 28 31 27 23 15 15 18 17 23 23 33 43 43 39 31 31 29 46 56 52 42 33 25 27 29 24 21 18 18 8
37 39 40 41 39 38 37 37 36 32 30 31 28 27 25 23 22 25 32 33 34 44 50 47 46 51 71 67 60 54 49 39 29 23 23 23 22 20 15 16 17 20 20
33 36 37 40 40 38 34 31 29 26 25 27 30 31 32 34 36 35 34 39 40 44 41 70 80 64 46 40 36 32 28 23 20 16 18 21 19 18 15 14 22 30 27
30 31 34 37 37 36 36 33 30 31 37 39 39 39 42 46 49 49 49 59 84 75 65 53 43 35 34 35 35 32 30 34 36 38 27 20 20 26 26 26 28 34 26
26 27 30 32 34 39 44 48 48 47 49 55 56 59 67 73 77 77 71 59 54 53 51 49 48 44 39 33 33 40 40 35 31 35 38 36 35 35 38 42 35 38 29
Wind_Direction_850mb
116 124 122 91 64 50 301 306 191 146 203 222 222 243 253 259 264 243 254 214 211 194 197 206 224 237 247 274 296 309 317 323 325 328 327 327 325 325 319 321 317 320 313
120 105 76 61 52 30 15 22 84 147 242 269 257 253 260 256 226 230 208 215 196 196 212 229 233 243 263 291 311 320 325 332 336 336 332 331 325 321 315 325 323 323 310
124 104 88 80 72 55 43 23 10 13 324 297 285 286 315 224 209 189 189 208 227 233 234 233 235 245 270 304 323 328 330 331 333 334 334 333 311 323 319 324 327 320 322
124 114 94 81 62 59 56 50 36 14 21 4 19 66 110 180 200 206 206 213 213 244 266 259 249 267 289 311 323 324 327 329 328 325 325 318 313 318 319 314 320 322 319
119 110 96 92 86 83 78 76 73 61 42 31 35 354 265 279 301 179 182 194 210 245 249 263 282 282 286 300 312 317 325 330 328 326 320 316 317 317 309 303 312 322 321
90 96 102 108 97 89 81 62 49 27 14 13 17 17 33 164 197 196 209 235 244 234 240 243 251 267 289 295 306 314 320 324 325 326 321 319 317 313 311 306 308 309 319
76 77 75 67 55 45 34 37 33 27 12 356 353 341 337 337 317 308 299 287 279 263 259 260 268 279 280 295 306 314 321 321 318 319 321 315 312 311 309 308 309 307 310
69 73 74 76 71 69 46 31 13 345 335 332 345 341 328 316 305 295 302 291 270 265 271 275 281 286 290 296 301 315 322 324 319 312 314 311 310 307 307 307 310 314 311
58 58 59 50 42 38 31 17 12 4 359 339 315 296 299 293 300 300 289 279 273 270 269 275 282 284 290 297 300 307 311 309 311 313 312 306 312 308 307 304 303 309 311
39 32 23 15 7 360 354 346 342 336 328 317 312 309 304 294 290 288 288 286 283 271 274 266 276 285 300 296 306 315 314 309 309 309 309 307 307 301 305 301 302 301 301
12 4 356 350 343 337 333 328 323 320 317 316 312 303 293 293 289 290 288 282 278 270 259 277 269 281 272 281 299 306 310 311 310 318 304 306 308 304 305 306 301 299 299
355 349 344 336 331 328 325 322 319 315 312 306 301 298 294 287 284 278 280 284 283 283 282 277 266 269 279 284 288 299 302 306 313 314 302 306 305 306 311 310 300 301 297
345 340 335 333 330 326 324 321 320 317 316 313 308 304 303 297 283 276 278 276 276 276 276 277 281 284 283 282 284 291 300 304 306 312 302 304 299 309 313 305 298 300 302
341 335 337 337 332 332 329 325 320 318 313 309 309 310 307 308 300 298 279 264 271 278 272 269 270 274 277 279 286 296 304 306 305 301 299 297 300 317 312 309 319 357 26
342 342 338 336 333 329 325 323 319 315 316 314 309 306 303 298 304 294 295 279 273 269 276 273 273 274 278 290 295 296 303 304 296 297 295 290 336 331 349 45 55 68 70
341 338 334 330 329 328 325 320 320 320 319 313 307 299 295 306 305 306 308 283 273 273 277 276 277 292 298 294 296 298 292 285 284 278 195 77 31 26 44 58 71 74 80
332 331 328 331 328 326 326 326 324 324 322 318 315 308 309 307 298 304 283 324 300 276 295 297 299 295 295 293 290 287 289 284 259 178 141 86 66 63 72 73 74 76 74
331 333 333 331 335 335 334 332 330 328 327 327 321 312 320 310 312 296 311 311 307 304 303 300 298 294 289 289 291 290 286 197 170 156 134 88 74 73 82 81 77 77 79
334 333 335 340 343 345 343 341 341 336 329 328 331 323 317 323 326 323 315 313 312 309 303 305 320 306 300 304 297 275 194 172 155 146 126 91 82 79 73 74 79 76 80
339 343 346 352 354 358 355 355 351 355 353 347 339 11 10 0 341 345 347 324 310 289 307 324 356 7 12 23 161 160 157 136 119 108 112 116 97 84 62 22 38 61 77
348 353 0 4 4 4 7 8 15 17 25 32 35 27 14 15 355 360 5 10 354 31 55 72 81 79 85 96 106 111 111 111 119 111 115 104 95 70 35 17 340 293 294
359 5 12 15 13 15 19 18 24 35 47 55 59 50 35 50 58 65 54 61 73 94 83 95 95 94 87 85 91 95 85 93 99 101 96 83 68 65 62 56 64 51 75
5 14 18 20 17 20 25 30 33 40 46 50 55 49 46 59 62 72 85 85 87 96 99 97 88 99 93 92 96 101 99 100 98 88 84 84 76 69 55 46 28 34 50
13 18 21 25 26 27 34 39 42 44 49 47 56 66 70 77 79 82 81 85 91 94 105 97 95 98 98 94 89 85 85 82 75 79 98 96 81 49 39 34 34 40 71
18 24 27 31 35 40 45 46 49 61 73 74 74 78 82 83 84 82 85 93 97 95 95 95 90 82 78 76 77 72 72 91 95 100 93 89 65 62 49 44 39 57 96
24 32 39 44 51 62 67 67 67 74 80 82 84 89 92 93 94 93 95 91 85 82 81 79 75 72 73 72 75 89 92 90 88 84 79 74 68 64 57 50 51 58 69